View from above orbital plane
|
View from above satellite
|
Ground track
|
The orbit data is extracted from the following two-line orbital elements,
1 26069U 00006A 21021.69854926 -.00000256 00000-0 -11110-3 0 9996
2 26069 70.9947 125.2528 0009584 28.1033 332.0604 14.13423091 81857
Epoch (UTC): | 21 January 2021 16:45:54 |
Eccentricity: | 0.0009584 |
inclination: | 70.9947° |
perigee height: | 841 km |
apogee height: | 854 km |
right ascension of ascending node: | 125.2528° |
argument of perigee: | 28.1033° |
revolutions per day: | 14.13423091 |
mean anomaly at epoch: | 332.0604° |
orbit number at epoch: | 8185 |
The dashed part of the orbit path shows where the satellite is in the earth's shadow,
|
|